Location: Kopernik Observatory
(42.0014°N, 76.0372°W)
Time: 12:37:18
(UTC-04:00)

Daily predictions for brighter satellites

Satellite Brightness Start Highest point End
(mag) Time Altitude Azimuth Time Altitude Azimuth Time Altitude Azimuth
NOSS 3-3 (A) 4.4 20:11:17 10° S 20:16:48 40° ESE 20:22:46 10° NE
NOSS 3-3 (C) 4.4 20:11:24 10° S 20:16:54 39° ESE 20:22:51 10° NE
Cosmos 1844 Rocket 2.9 20:12:01 10° NNW 20:17:38 59° ENE 20:23:13 10° SE
Cosmos 2263 Rocket 4.3 20:14:54 10° NW 20:19:43 29° WSW 20:24:30 10° SSW
Cosmos 1844 4.1 20:15:25 10° NNW 20:20:58 50° ENE 20:26:31 10° SE
Cosmos 2221 3.0 20:16:54 10° SSW 20:21:08 66° W 20:25:23 10° N
Cosmos 1455 3.3 20:19:40 10° SE 20:22:47 24° E 20:25:55 10° NE
Cosmos 44 4.1 20:20:50 10° SW 20:25:13 53° NW 20:29:52 10° NNE
ERS-2 2.1 20:22:09 10° SSE 20:25:45 64° ENE 20:29:25 10° N
Cosmos 494 Rocket 4.3 20:20:50 10° NNW 20:26:02 73° WSW 20:31:14 10° S
Cosmos 2219 Rocket 2.5 20:22:51 10° S 20:28:13 45° ESE 20:33:34 10° NE
Cosmos 2237 Rocket 3.3 20:24:41 10° SSE 20:28:54 22° E 20:33:08 10° NE
Cosmos 1892 3.2 20:25:10 10° N 20:28:54 42° ENE 20:32:35 10° SSE
H-2A R/B 4.0 20:28:29 10° E 20:30:23 12° ENE 20:32:17 10° NE
Cosmos 2154 Rocket 4.0 20:25:07 10° S 20:31:16 62° E 20:37:24 10° NNE
Cosmos 1805 Rocket 3.6 20:30:01 10° N 20:34:22 83° W 20:38:42 10° S
Cosmos 2184 Rocket 4.3 20:28:43 10° SSW 20:34:51 72° W 20:41:02 10° N
CZ-3B R/B 4.3 20:36:53 10° NNE 20:37:09 10° NNE 20:37:25 10° NE
Cosmos 2278 Rocket 3.2 20:32:12 10° N 20:37:13 31° NE 20:41:43 12° ESE
Cosmos 1328 Rocket 4.1 20:36:51 10° SSE 20:40:56 39° E 20:45:04 10° NNE
Genesis I 4.2 20:38:45 10° NNW 20:42:31 34° NE 20:45:30 14° ESE
YAOGAN 6 2.5 20:39:15 10° SSE 20:42:48 70° ENE 20:46:27 10° N
Cosmos 2251 Rocket 3.6 20:38:24 10° NNW 20:43:50 90° ESE 20:49:11 10° SSE
Resurs 01 Rocket 1.7 20:39:39 10° SSE 20:44:01 60° ENE 20:48:24 10° N
Meteor 2-15 4.5 20:38:33 10° N 20:44:44 89° E 20:50:50 10° S
Cosmos 44 Rocket 4.3 20:43:36 10° SW 20:48:14 50° NW 20:53:01 10° NNE
Envisat 3.6 20:43:18 10° S 20:48:19 60° W 20:53:22 10° NNW
Cosmos 1470 Rocket 4.1 20:48:03 10° N 20:52:11 38° ENE 20:55:28 15° SE
Cosmos 2341 Rocket 4.1 20:46:47 10° S 20:53:01 62° E 20:59:16 10° NNE
ATLAS CENTAUR R/B 1.2 20:51:56 10° SSW 20:55:26 47° ESE 20:59:07 10° NE
Cosmos 1340 3.5 20:53:38 10° SSW 20:57:21 55° WNW 21:01:06 10° N
Cosmos 962 Rocket 4.4 20:52:11 10° S 20:58:15 70° E 21:04:23 10° NNE
Timation 1 Rocket 4.5 20:54:09 10° NNW 21:00:08 78° WSW 21:06:05 10° SSE
Cosmos 2098 Rocket 4.3 20:58:56 18° SE 21:00:52 23° E 21:04:06 10° NE
Aureole 2 4.2 21:02:00 10° S 21:04:58 48° ESE 21:07:50 10° NNE
NOSS 0 Rocket 3.9 21:01:16 10° S 21:07:18 59° ESE 21:13:24 10° NNE
Cosmos 1295 Rocket 4.5 21:01:36 10° S 21:07:56 78° E 21:14:16 10° N
Cosmos 1825 2.8 21:06:42 10° N 21:10:15 37° ENE 21:11:38 27° ESE
Cosmos 2366 rocket 4.4 21:06:59 11° SSE 21:12:29 42° E 21:18:21 10° NNE
Thor Agena Rocket 4.3 21:07:51 10° N 21:12:58 57° WNW 21:18:06 10° SSW
BREEZE-M DEB (TANK) 4.2 21:10:52 10° WNW 21:13:10 22° NNW 21:15:02 10° NE
SJ-11-01 4.5 21:13:26 10° S 21:18:05 72° WSW 21:22:46 10° NNW
SL-16 R/B 3.2 21:17:50 23° ESE 21:18:15 23° E 21:22:35 10° NE
Cosmos 1939 Rocket 3.9 21:15:38 10° S 21:19:18 43° W 21:23:03 10° NNW
Resurs 1-3 4.3 21:15:41 10° S 21:19:57 53° W 21:24:16 10° NNW
USA 186 3.8 21:18:51 10° SW 21:20:24 17° W 21:22:01 10° NW
Cosmos 1933 Rocket 3.5 21:16:35 10° N 21:20:57 66° E 21:23:24 25° SSE
Meteor 2-3 Rocket 3.9 21:15:55 10° NNW 21:21:32 75° W 21:27:08 10° S
SL-8 Rocket 4.0 21:15:52 10° S 21:22:06 68° E 21:28:21 10° NNE
GEOS 3 Rocket 4.2 21:21:24 10° NE 21:26:09 33° ESE 21:30:50 10° S
Terra 4.0 21:26:13 10° ENE 21:26:54 11° ENE 21:27:58 10° NE
Cosmos 220 Rocket 4.2 21:22:57 10° NNW 21:27:16 69° WSW 21:29:56 22° S
ARGOS 3.4 21:25:39 27° SE 21:28:22 52° ENE 21:33:32 10° N
Cosmos 1869 3.5 21:27:19 33° SSE 21:28:43 50° E 21:32:37 10° NNE
Cosmos 1151 Rocket 2.9 21:25:01 10° S 21:29:16 88° E 21:33:33 10° N
ATLAS 2AS CENTAUR R/B 3.0 21:22:21 10° NW 21:30:18 81° WSW 21:35:15 23° SSE
Spot 2 Rocket 3.9 21:26:22 11° S 21:31:17 62° WSW 21:36:20 10° NNW
MetOp-B 4.4 21:30:49 30° SE 21:33:11 50° ENE 21:38:21 10° N
Lacrosse 5 4.3 21:35:06 10° NNW 21:38:07 16° N 21:41:08 10° NE
BREEZE-M DEB (TANK) 4.2 21:32:42 10° W 21:38:49 30° NNW 21:41:03 13° NE
SPOT 5 3.9 21:40:05 26° ENE 21:40:32 27° ENE 21:44:18 10° N
Cosmos 1869 Rocket 4.3 21:39:04 10° N 21:43:04 34° ENE 21:43:13 34° E
Cosmos 1980 3.8 21:39:06 10° SSW 21:44:47 81° WNW 21:50:31 10° NNE
Helios 1B rocket 4.4 21:42:11 10° NE 21:43:24 16° ENE 21:43:24 16° ENE
Cosmos 2297 4.2 21:43:08 10° NNW 21:48:34 44° ENE 21:50:11 35° E
Meteor 2-10 Rocket 3.7 21:46:07 26° S 21:49:23 66° E 21:55:09 10° NNE
Cosmos 2333 Rocket 3.3 21:48:06 10° SW 21:53:29 44° WNW 21:58:54 10° NNE
Cosmos 864 Rocket 4.4 21:49:04 16° S 21:54:05 85° E 22:00:16 10° N
Cosmos 2369 Rocket 4.3 21:53:57 10° NNE 21:56:37 13° NE 21:58:28 12° ENE
Cosmos 1441 Rocket 4.4 21:59:48 29° NE 21:59:48 29° NE 22:01:56 10° NNE
Cosmos 2228 Rocket 4.2 21:54:13 10° SSW 21:58:23 42° WNW 22:02:34 10° N
Helios 1A 3.4 21:59:12 47° ENE 21:59:12 47° ENE 22:03:11 10° N
Cosmos 1408 3.8 21:57:05 10° NNW 22:00:31 40° W 22:01:43 30° SW
NOSS 3-4 (A) 4.0 21:53:40 10° NNW 22:00:37 61° NE 22:03:34 37° ESE
NOSS 3-4 (C) 4.0 21:53:46 10° NNW 22:00:43 60° NE 22:03:39 37° ESE
SPOT 1/Viking Rocket 4.0 22:00:11 40° E 22:00:53 42° ENE 22:05:47 10° N
USA 81 4.0 21:56:09 10° N 22:01:26 69° E 22:02:39 51° SE
H-2A R/B 1.9 22:07:50 52° SSE 22:09:06 88° WSW 22:14:07 10° NNW
Cosmos 407 Rocket 3.3 22:05:15 10° NNW 22:10:24 76° ENE 22:11:08 64° SE
SL-8 R/B 3.7 22:06:02 10° WSW 22:10:50 79° NNW 22:12:51 35° NE
ERS-1 Rocket 2.8 22:10:13 58° SSE 22:11:16 89° ENE 22:16:19 10° NNW
USA 267 3.2 22:05:34 10° NE 22:11:59 55° SE 22:18:21 10° SSW
Cosmos 2219 Rocket 4.2 22:07:31 10° WSW 22:12:21 28° NW 22:17:11 10° N
Cosmos 2237 Rocket 2.9 22:07:03 10° SW 22:12:32 52° WNW 22:18:03 10° NNE
MetOp-A 4.4 22:12:26 36° SSW 22:14:30 62° WSW 22:19:49 10° NNW
Cosmos 1862 3.5 22:10:33 10° N 22:14:04 62° NNE 22:14:04 62° NNE
Cosmos 614 Rocket 4.4 22:09:45 10° N 22:14:45 44° ENE 22:14:58 44° ENE
Cosmos 1371 Rocket 4.4 22:12:49 10° SSW 22:18:04 62° WNW 22:23:24 10° NNE
Resurs 01 Rocket 4.4 22:18:52 10° WSW 22:20:52 13° W 22:22:53 10° WNW
Cosmos 2278 Rocket 3.2 22:16:06 10° NW 22:21:23 41° WSW 22:23:35 29° SSW
SL-08 RB Rocket 4.0 22:24:45 53° SW 22:25:16 56° W 22:29:41 10° NNW
Cosmos 405 Rocket 3.7 22:28:05 42° N 22:28:05 42° N 22:30:46 10° N
Cosmos 1000 Rocket 4.4 22:22:32 10° N 22:28:43 64° E 22:29:24 60° ESE
ATLAS 5 CENTAUR R/B 4.1 22:24:37 10° NNW 22:28:56 21° NE 22:31:07 18° ENE
Cosmos 1727 Rocket 4.3 22:23:08 10° NNW 22:29:14 63° W 22:31:34 38° SSW
Cosmos 676 Rocket 3.9 22:24:02 10° NNW 22:29:18 70° ENE 22:29:20 70° ENE
Cosmos 1821 Rocket 3.9 22:33:03 62° ESE 22:33:34 64° E 22:39:48 10° NNE
ATLAS CENTAUR R/B 4.1 22:32:11 10° W 22:34:42 17° NW 22:37:17 10° N
Cosmos 2056 Rocket 4.3 22:35:44 17° SW 22:39:44 51° WNW 22:45:01 10° N
Cosmos 1452 Rocket 4.1 22:42:01 47° NE 22:42:01 47° NE 22:45:52 10° NNE
USA 234 4.1 22:43:06 29° ENE 22:45:43 41° NNE 22:51:46 10° NW
Landsat 7 4.1 22:46:49 66° N 22:46:49 66° N 22:50:54 10° NNW
Cosmos 2123 Rocket 4.2 22:43:57 10° N 22:49:58 54° ENE 22:49:58 54° ENE
SL-16 R/B 2.9 22:59:33 31° WSW 23:01:58 51° WNW 23:07:30 10° NNE
Cosmos 2344 3.4 22:58:41 35° SSW 23:02:19 86° ESE 23:10:42 10° NE
Terra 2.5 23:05:06 51° N 23:05:06 51° N 23:08:39 10° NNW
Cosmos 1535 Rocket 4.4 23:04:34 88° SSW 23:04:39 90° W 23:11:05 10° N
Cosmos 1140 Rocket 4.0 23:02:25 10° NNW 23:06:46 56° WNW 23:06:46 56° WNW
CZ-4C R/B 3.5 23:13:19 29° NE 23:13:19 29° NE 23:16:15 10° NE
CZ-2C R/B 3.9 23:14:25 40° N 23:14:25 40° N 23:17:34 10° N
Cosmos 1241 Rocket 4.5 23:06:45 10° NNW 23:12:48 74° NNE 23:12:48 74° NNE
Cosmos 1943 Rocket 3.4 23:09:06 10° N 23:13:21 31° NE 23:13:21 31° NE
SPOT 5 4.3 23:19:20 29° WNW 23:19:20 29° WNW 23:22:33 10° NW
Helios 1B rocket 4.3 23:17:01 10° N 23:19:46 28° NW 23:19:46 28° NW
Lacrosse 5 3.3 23:17:52 10° NNW 23:21:58 33° NNE 23:21:58 33° NNE
Cosmos 1605 Rocket 4.2 23:24:41 64° NE 23:24:41 64° NE 23:30:09 10° N
Cosmos 2369 Rocket 2.9 23:36:00 10° NNW 23:40:15 50° N 23:40:15 50° N
